FW3613 Weather Reports


time (UTC)temp
F
wind
direction
speed
knots
gust
knots
rain 1hr
in
rain 24hr
in
rain mn
in
humidity
%
barometer
mb
20260509214029 74 297 1.7 7.8 0.00 0.00 0.00 22 1017.9
20260509213530 74 267 2.6 7.8 0.00 0.00 0.00 21 1018.0
20260509213025 74 293 2.6 7.8 0.00 0.00 0.00 23 1018.1
20260509212524 74 257 2.6 7.8 0.00 0.00 0.00 23 1018.2
20260509212023 74 296 3.5 7.0 0.00 0.00 0.00 26 1018.4
20260509211526 73 304 1.7 7.0 0.00 0.00 0.00 26 1018.4
20260509211023 74 257 2.6 7.8 0.00 0.00 0.00 26 1018.4
20260509210521 73 291 2.6 7.8 0.00 0.00 0.00 26 1018.5
20260509210021 73 280 0.9 8.7 0.00 0.00 0.00 27 1018.5
20260509205519 73 289 4.3 8.7 0.00 0.00 0.00 27 1018.6
20260509205019 73 307 2.6 12.2 0.00 0.00 0.00 27 1018.5
20260509204527 72 280 3.5 12.2 0.00 0.00 0.00 28 1018.7
20260509204018 72 304 4.3 9.6 0.00 0.00 0.00 28 1018.7
20260509203518 72 290 1.7 8.7 0.00 0.00 0.00 30 1018.7
20260509203017 72 305 2.6 8.7 0.00 0.00 0.00 29 1018.7
20260509202516 71 283 1.7 10.4 0.00 0.00 0.00 30 1018.7
20260509202017 71 305 4.3 10.4 0.00 0.00 0.00 29 1018.8
20260509201516 72 302 3.5 8.7 0.00 0.00 0.00 29 1018.8
20260509201015 72 320 0.9 9.6 0.00 0.00 0.00 31 1018.8
20260509200517 71 120 0.9 9.6 0.00 0.00 0.00 30 1018.8
20260509200013 71 305 1.7 5.2 0.00 0.00 0.00 30 1018.9
20260509195514 71 283 0.9 7.8 0.00 0.00 0.00 31 1019.1
20260509195015 70 297 3.5 7.8 0.00 0.00 0.00 30 1019.1
20260509194510 70 288 1.7 8.7 0.00 0.00 0.00 32 1019.2
20260509194010 70 271 2.6 8.7 0.00 0.00 0.00 31 1019.3
20260509193509 70 304 0.9 6.1 0.00 0.00 0.00 32 1019.3
20260509193008 70 293 1.7 7.8 0.00 0.00 0.00 33 1019.5
20260509192507 69 125 4.3 7.8 0.00 0.00 0.00 32 1019.5
20260509192007 69 246 2.6 7.8 0.00 0.00 0.00 33 1019.6
20260509191506 69 294 3.5 7.0 0.00 0.00 0.00 32 1019.6
20260509191010 69 291 0.9 5.2 0.00 0.00 0.00 32 1019.7
20260509190504 68 283 1.7 6.1 0.00 0.00 0.00 31 1019.6
20260509190004 68 291 2.6 6.1 0.00 0.00 0.00 32 1019.8
20260509185502 68 269 1.7 7.8 0.00 0.00 0.00 33 1019.7
20260509185001 67 309 2.6 7.8 0.00 0.00 0.00 33 1019.8
20260509184500 67 291 2.6 7.0 0.00 0.00 0.00 33 1019.8
20260509184001 67 283 1.7 5.2 0.00 0.00 0.00 33 1019.8
20260509183600 67 309 1.7 5.2 0.00 0.00 0.00 34 1019.8
20260509183059 66 312 0.9 7.0 0.00 0.00 0.00 35 1019.9
20260509182559 66 291 2.6 7.0 0.00 0.00 0.00 36 1020.0
20260509182057 66 172 1.7 8.7 0.00 0.00 0.00 36 1020.1
20260509181603 66 278 2.6 8.7 0.00 0.00 0.00 36 1020.2
20260509181056 65 321 3.5 7.8 0.00 0.00 0.00 36 1020.2
20260509180554 65 293 2.6 7.8 0.00 0.00 0.00 37 1020.2
20260509180055 64 302 4.3 7.8 0.00 0.00 0.00 37 1020.2
20260509175551 64 308 2.6 7.0 0.00 0.00 0.00 39 1020.2
20260509175051 64 301 3.5 7.8 0.00 0.00 0.00 39 1020.3
20260509174557 63 285 0.9 7.8 0.00 0.00 0.00 41 1020.3
20260509174048 63 296 0.9 5.2 0.00 0.00 0.00 43 1020.3
20260509173546 63 295 1.7 9.6 0.00 0.00 0.00 44 1020.5
20260509173050 62 301 3.5 9.6 0.00 0.00 0.00 44 1020.5
20260509172544 62 291 1.7 7.0 0.00 0.00 0.00 45 1020.4
20260509172042 62 312 1.7 7.0 0.00 0.00 0.00 45 1020.5
20260509171550 61 298 2.6 5.2 0.00 0.00 0.00 46 1020.5
20260509171042 61 302 2.6 6.1 0.00 0.00 0.00 46 1020.5
20260509170540 61 297 2.6 6.1 0.00 0.00 0.00 45 1020.5
20260509170043 60 294 2.6 6.1 0.00 0.00 0.00 46 1020.5
20260509165539 60 294 1.7 4.3 0.00 0.00 0.00 48 1020.5
20260509165037 60 296 1.7 5.2 0.00 0.00 0.00 48 1020.5
20260509164537 60 303 1.7 4.3 0.00 0.00 0.00 48 1020.5
20260509164035 59 300 1.7 4.3 0.00 0.00 0.00 47 1020.6
20260509163534 59 301 0.9 3.5 0.00 0.00 0.00 48 1020.6
20260509163033 58 310 0.0 4.3 0.00 0.00 0.00 48 1020.6
20260509162532 58 288 0.9 5.2 0.00 0.00 0.00 48 1020.7
20260509162036 58 297 1.7 5.2 0.00 0.00 0.00 49 1020.7
20260509161531 57 290 0.9 4.3 0.00 0.00 0.00 50 1020.5
20260509161031 57 294 0.9 4.3 0.00 0.00 0.00 50 1020.5
20260509160527 57 293 1.7 3.5 0.00 0.00 0.00 50 1020.5
20260509160026 56 275 0.0 2.6 0.00 0.00 0.00 52 1020.5
20260509155523 56 283 0.0 2.6 0.00 0.00 0.00 52 1020.5
20260509155022 55 293 0.0 2.6 0.00 0.00 0.00 53 1020.5
20260509154524 55 205 0.0 2.6 0.00 0.00 0.00 54 1020.5
20260509154019 55 288 0.0 2.6 0.00 0.00 0.00 54 1020.5
20260509153521 54 222 0.0 1.7 0.00 0.00 0.00 54 1020.5
20260509153025 54 293 0.0 1.7 0.00 0.00 0.00 55 1020.5
20260509152517 54 203 0.0 0.9 0.00 0.00 0.00 56 1020.5
20260509152016 54 134 0.0 0.9 0.00 0.00 0.00 59 1020.5
20260509151516 53 134 0.0 0.9 0.00 0.00 0.00 60 1020.5
20260509151015 53 134 0.0 0.0 0.00 0.00 0.00 61 1020.5
20260509150514 52 134 0.0 0.0 0.00 0.00 0.00 62 1020.5
20260509150018 52 134 0.0 0.0 0.00 0.00 0.00 62 1020.5
20260509145514 51 134 0.0 0.9 0.00 0.00 0.00 62 1020.5
20260509145014 51 115 0.0 0.0 0.00 0.00 0.00 64 1020.4
20260509144515 51 108 0.0 0.9 0.00 0.00 0.00 65 1020.5
20260509144013 50 58 0.0 0.9 0.00 0.00 0.00 66 1020.5
20260509143513 50 127 0.0 0.9 0.00 0.00 0.00 69 1020.5
20260509143019 49 127 0.0 0.9 0.00 0.00 0.00 69 1020.5
20260509142514 49 112 0.0 0.9 0.00 0.00 0.00 70 1020.5
20260509142012 48 132 0.0 0.9 0.00 0.00 0.00 71 1020.4
20260509141513 48 126 0.0 0.9 0.00 0.00 0.00 72 1020.4
20260509141012 47 126 0.0 0.9 0.00 0.00 0.00 74 1020.5
20260509140511 47 125 0.0 0.9 0.00 0.00 0.00 75 1020.4
20260509140011 46 125 0.0 0.9 0.00 0.00 0.00 75 1020.4
20260509135511 45 125 0.0 0.0 0.00 0.00 0.00 78 1020.4
20260509135015 45 125 0.0 0.0 0.00 0.00 0.00 79 1020.4
20260509134511 44 126 0.0 0.0 0.00 0.00 0.00 81 1020.4
20260509134010 43 125 0.0 0.0 0.00 0.00 0.00 81 1020.4
20260509133510 43 125 0.0 0.0 0.00 0.00 0.00 82 1020.4
20260509133010 43 125 0.0 0.0 0.00 0.00 0.00 83 1020.4
20260509132509 42 125 0.0 0.0 0.00 0.00 0.00 83 1020.2
20260509132008 42 125 0.0 0.0 0.00 0.00 0.00 85 1020.2
20260509131510 41 125 0.0 0.0 0.00 0.00 0.00 85 1020.1
20260509131007 41 126 0.0 0.0 0.00 0.00 0.00 85 1020.0
20260509130505 41 125 0.0 0.0 0.00 0.00 0.00 86 1019.9
20260509130007 41 125 0.0 0.0 0.00 0.00 0.00 85 1019.9
20260509125507 41 125 0.0 0.0 0.00 0.00 0.00 85 1019.8
20260509125002 41 125 0.0 0.0 0.00 0.00 0.00 84 1019.7
20260509124502 41 125 0.0 0.0 0.00 0.00 0.00 84 1019.7
20260509124001 41 125 0.0 0.0 0.00 0.00 0.00 84 1019.7
20260509123501 41 125 0.0 0.0 0.00 0.00 0.00 84 1019.6
20260509123100 42 125 0.0 0.0 0.00 0.00 0.00 84 1019.6
20260509122559 42 125 0.0 0.0 0.00 0.00 0.00 83 1019.6
20260509122102 42 125 0.0 0.0 0.00 0.00 0.00 83 1019.6
20260509121612 42 125 0.0 0.0 0.00 0.00 0.00 83 1019.5
20260509121058 42 125 0.0 0.0 0.00 0.00 0.00 83 1019.5
20260509120557 42 125 0.0 0.0 0.00 0.00 0.00 83 1019.5
20260509120055 43 125 0.0 0.0 0.00 0.00 0.00 82 1019.5
20260509115555 43 126 0.0 0.0 0.00 0.00 0.00 82 1019.5
20260509115057 43 125 0.0 0.0 0.00 0.00 0.00 81 1019.5
20260509114554 43 126 0.0 0.0 0.00 0.00 0.00 82 1019.3
20260509114054 43 125 0.0 0.0 0.00 0.00 0.00 81 1019.3
20260509113554 43 126 0.0 0.0 0.00 0.00 0.00 81 1019.3
20260509113058 43 125 0.0 0.0 0.00 0.00 0.00 82 1019.3
20260509112556 43 126 0.0 0.0 0.00 0.00 0.00 82 1019.3
20260509112051 43 125 0.0 0.0 0.00 0.00 0.00 82 1019.2
20260509111557 43 126 0.0 0.0 0.00 0.00 0.00 82 1019.3
20260509111049 43 125 0.0 0.0 0.00 0.00 0.00 82 1019.1
20260509110549 43 125 0.0 0.0 0.00 0.00 0.00 81 1019.1
20260509110046 43 124 0.0 0.0 0.00 0.00 0.00 80 1019.1
20260509105549 44 124 0.0 0.0 0.00 0.00 0.00 80 1019.1
20260509105046 43 124 0.0 0.0 0.00 0.00 0.00 81 1019.0
20260509104545 44 124 0.0 0.0 0.00 0.00 0.00 80 1019.1
20260509104043 44 124 0.0 0.0 0.00 0.00 0.00 79 1019.0
20260509103542 44 124 0.0 0.0 0.00 0.00 0.00 78 1018.9
20260509103041 45 124 0.0 0.0 0.00 0.00 0.00 78 1018.9
20260509102540 45 124 0.0 0.0 0.00 0.00 0.00 77 1018.8
20260509102039 45 124 0.0 0.0 0.00 0.00 0.00 77 1018.9
20260509101540 45 124 0.0 0.0 0.00 0.00 0.00 77 1018.8
20260509101037 46 124 0.0 0.0 0.00 0.00 0.00 75 1018.8
20260509100536 46 124 0.0 0.0 0.00 0.00 0.00 74 1018.8
20260509100036 46 124 0.0 0.0 0.00 0.00 0.00 75 1018.7
20260509095535 46 124 0.0 0.0 0.00 0.00 0.00 76 1018.7
20260509095033 46 124 0.0 0.0 0.00 0.00 0.00 76 1018.7
20260509094533 46 124 0.0 0.0 0.00 0.00 0.00 76 1018.6
20260509094031 46 124 0.0 0.0 0.00 0.00 0.00 75 1018.5
20260509093530 46 124 0.0 0.0 0.00 0.00 0.00 74 1018.4
20260509093030 47 124 0.0 0.0 0.00 0.00 0.00 73 1018.3
20260509092529 47 120 0.0 0.0 0.00 0.00 0.00 73 1018.3
20260509092029 47 120 0.0 0.0 0.00 0.00 0.00 73 1018.3
20260509091530 47 120 0.0 0.0 0.00 0.00 0.00 73 1018.3
20260509091028 47 120 0.0 0.0 0.00 0.00 0.00 74 1018.3
20260509090528 47 120 0.0 0.0 0.00 0.00 0.00 75 1018.3
20260509090026 47 120 0.0 0.0 0.00 0.00 0.00 74 1018.2
20260509085524 47 120 0.0 0.0 0.00 0.00 0.00 72 1018.1
20260509085024 47 120 0.0 0.0 0.00 0.00 0.00 73 1018.1
20260509084525 47 82 0.0 0.0 0.00 0.00 0.00 74 1018.1
20260509084024 47 82 0.0 0.0 0.00 0.00 0.00 74 1018.1
20260509083524 47 82 0.0 0.0 0.00 0.00 0.00 75 1018.1
20260509083028 47 186 0.0 0.0 0.00 0.00 0.00 75 1018.0
20260509082522 48 186 0.0 0.0 0.00 0.00 0.00 74 1017.9
20260509082020 48 186 0.0 0.0 0.00 0.00 0.00 72 1017.9
20260509081521 48 186 0.0 0.0 0.00 0.00 0.00 72 1017.9
20260509081018 49 186 0.0 0.0 0.00 0.00 0.00 71 1017.8
20260509080518 49 186 0.0 0.0 0.00 0.00 0.00 71 1017.9
20260509080021 49 186 0.0 0.0 0.00 0.00 0.00 71 1017.8
20260509075521 49 186 0.0 0.0 0.00 0.00 0.00 72 1017.8
20260509075016 49 186 0.0 0.0 0.00 0.00 0.00 73 1017.7
20260509074513 49 186 0.0 0.0 0.00 0.00 0.00 74 1017.7
20260509074011 49 186 0.0 0.0 0.00 0.00 0.00 73 1017.6
20260509073510 49 186 0.0 0.0 0.00 0.00 0.00 72 1017.4
20260509073009 50 186 0.0 0.0 0.00 0.00 0.00 70 1017.3
20260509072509 50 186 0.0 0.0 0.00 0.00 0.00 69 1017.3
20260509072007 50 186 0.0 0.0 0.00 0.00 0.00 69 1017.2
20260509071506 51 292 0.0 0.0 0.00 0.00 0.00 69 1017.1
20260509071006 51 292 0.0 0.0 0.00 0.00 0.00 69 1017.0
20260509070504 51 293 0.0 0.0 0.00 0.00 0.00 69 1016.9
20260509070003 51 293 0.0 0.0 0.00 0.00 0.00 69 1016.8
20260509065501 51 292 0.0 0.0 0.00 0.00 0.00 67 1016.7
20260509065002 51 293 0.0 0.0 0.00 0.00 0.00 68 1016.7
20260509064605 51 293 0.0 0.0 0.00 0.00 0.00 67 1016.7
20260509064100 51 293 0.0 0.0 0.00 0.00 0.00 67 1016.6
20260509063558 52 293 0.0 0.0 0.00 0.00 0.00 67 1016.4
20260509063104 52 293 0.0 0.0 0.00 0.00 0.00 68 1016.4
20260509062556 52 293 0.0 0.0 0.00 0.00 0.00 68 1016.3
20260509062055 52 293 0.0 0.0 0.00 0.00 0.00 68 1016.3
20260509061554 53 293 0.0 0.0 0.00 0.00 0.00 65 1016.2
20260509061052 53 293 0.0 0.0 0.00 0.00 0.00 64 1016.2
20260509060550 53 293 0.0 0.0 0.00 0.00 0.00 63 1016.1
20260509060055 54 293 0.0 0.0 0.00 0.00 0.00 63 1016.0
20260509055548 54 293 0.0 0.0 0.00 0.00 0.00 62 1016.0
20260509055047 54 293 0.0 0.0 0.00 0.00 0.00 61 1015.9
20260509054549 55 293 0.0 0.0 0.00 0.00 0.00 61 1015.8
20260509054048 55 293 0.0 0.0 0.00 0.00 0.00 59 1015.7
20260509053547 56 293 0.0 0.0 0.00 0.00 0.00 58 1015.7
20260509053112 56 293 0.0 0.0 0.00 0.00 0.00 57 1015.6
20260509052547 56 292 0.0 0.0 0.00 0.00 0.00 55 1015.6
20260509052047 56 293 0.0 0.0 0.00 0.00 0.00 57 1015.5
20260509051546 56 293 0.0 0.0 0.00 0.00 0.00 57 1015.4
20260509051046 56 293 0.0 0.0 0.00 0.00 0.00 57 1015.4
20260509050546 57 293 0.0 0.0 0.00 0.00 0.00 56 1015.3
20260509050046 57 293 0.0 0.0 0.00 0.00 0.00 54 1015.3
20260509045547 57 293 0.0 0.0 0.00 0.00 0.00 54 1015.3
20260509045046 58 293 0.0 0.0 0.00 0.00 0.00 53 1015.2
20260509044546 58 293 0.0 0.0 0.00 0.00 0.00 52 1015.1
20260509044045 59 293 0.0 0.0 0.00 0.00 0.00 52 1015.0
20260509043546 59 293 0.0 0.0 0.00 0.00 0.00 52 1014.9
20260509043102 59 292 0.0 0.0 0.00 0.00 0.00 50 1014.8
20260509042545 60 292 0.0 0.0 0.00 0.00 0.00 49 1014.7
20260509042048 60 294 0.0 0.0 0.00 0.00 0.00 49 1014.6
20260509041557 60 294 0.0 0.0 0.00 0.00 0.00 47 1014.6
20260509041146 60 294 0.0 0.0 0.00 0.00 0.00 47 1014.5
20260509040546 60 294 0.0 0.0 0.00 0.00 0.00 48 1014.4
20260509040050 61 292 0.0 0.0 0.00 0.00 0.00 47 1014.3
20260509035544 61 293 0.0 0.0 0.00 0.00 0.00 49 1014.2
20260509035044 62 293 0.0 0.0 0.00 0.00 0.00 46 1014.1
20260509034559 62 294 0.0 0.0 0.00 0.00 0.00 48 1014.0
20260509034043 62 294 0.0 0.0 0.00 0.00 0.00 47 1014.1
20260509033544 63 294 0.0 0.0 0.00 0.00 0.00 45 1014.0
20260509033043 64 294 0.0 0.0 0.00 0.00 0.00 44 1014.0
20260509032543 64 294 0.0 0.0 0.00 0.00 0.00 43 1013.9
20260509032042 65 294 0.0 0.0 0.00 0.00 0.00 42 1013.9
20260509031542 66 294 0.0 0.0 0.00 0.00 0.00 41 1013.8
20260509031042 67 293 0.0 0.0 0.00 0.00 0.00 40 1013.7
20260509030545 68 294 0.0 0.0 0.00 0.00 0.00 38 1013.6
20260509030042 69 294 0.0 0.0 0.00 0.00 0.00 38 1013.6
20260509025543 70 294 0.0 0.0 0.00 0.00 0.00 37 1013.5
20260509025041 70 293 0.0 0.0 0.00 0.00 0.00 34 1013.5
20260509024541 71 293 0.0 0.0 0.00 0.00 0.00 33 1013.5
20260509024041 72 294 0.0 0.0 0.00 0.00 0.00 32 1013.5
20260509023543 72 294 0.0 0.9 0.00 0.00 0.00 28 1013.4
20260509023040 73 294 0.0 2.6 0.00 0.00 0.00 27 1013.4
20260509022540 73 294 0.9 2.6 0.00 0.00 0.00 26 1013.4
20260509022040 73 288 0.0 1.7 0.00 0.00 0.00 25 1013.2
20260509021539 73 288 0.0 2.6 0.00 0.00 0.00 26 1013.2
20260509021041 73 288 0.0 2.6 0.00 0.00 0.00 25 1013.1
20260509020542 74 289 0.0 1.7 0.00 0.00 0.00 25 1013.2
20260509020050 74 291 0.0 2.6 0.00 0.00 0.00 24 1013.1
20260509015538 74 290 0.0 2.6 0.00 0.00 0.00 24 1013.1
20260509015037 74 279 0.0 0.9 0.00 0.00 0.00 24 1013.1
20260509014537 74 279 0.0 2.6 0.00 0.00 0.00 23 1013.1
20260509014036 75 279 0.9 5.2 0.00 0.00 0.00 22 1013.1
20260509013536 75 290 1.7 5.2 0.00 0.00 0.00 21 1013.1
20260509013047 75 279 0.9 6.1 0.00 0.00 0.00 22 1013.1
20260509012635 75 294 0.9 6.1 0.00 0.00 0.00 22 1013.1
20260509012035 75 308 0.9 6.1 0.00 0.00 0.00 22 1013.1
20260509011536 75 293 0.9 6.1 0.00 0.00 0.00 22 1013.2
20260509011035 75 304 0.9 4.3 0.00 0.00 0.00 23 1013.2
20260509010536 75 19 0.0 5.2 0.00 0.00 0.00 21 1013.1
20260509010048 75 300 1.7 5.2 0.00 0.00 0.00 22 1013.2
20260509005534 75 293 0.0 4.3 0.00 0.00 0.00 22 1013.3
20260509005034 75 141 0.9 5.2 0.00 0.00 0.00 22 1013.4
20260509004534 75 292 0.9 5.2 0.00 0.00 0.00 22 1013.4
20260509004034 75 303 1.7 3.5 0.00 0.00 0.00 22 1013.5
20260509003534 75 283 0.0 1.7 0.00 0.00 0.00 21 1013.4
20260509003033 75 280 0.9 3.5 0.00 0.00 0.00 20 1013.4
20260509002532 75 291 0.9 3.5 0.00 0.00 0.00 20 1013.5
20260509002033 76 294 0.9 4.3 0.00 0.00 0.00 20 1013.6
20260509001533 76 304 0.9 4.3 0.00 0.00 0.00 20 1013.5
20260509001034 76 282 0.9 3.5 0.00 0.00 0.00 20 1013.5
20260509000532 75 293 0.9 4.3 0.00 0.00 0.00 21 1013.5
20260509000032 75 298 0.9 5.2 0.00 0.00 0.00 21 1013.5
20260508235633 76 288 1.7 5.2 0.00 0.00 0.00 19 1013.6
20260508235032 76 311 0.9 4.3 0.00 0.00 0.00 20 1013.5
20260508234535 76 308 0.9 3.5 0.00 0.00 0.00 20 1013.5
20260508234032 76 288 0.9 3.5 0.00 0.00 0.00 21 1013.5
20260508233533 75 285 0.0 1.7 0.00 0.00 0.00 21 1013.6
20260508233031 75 285 0.0 3.5 0.00 0.00 0.00 19 1013.6
20260508232531 75 288 0.9 4.3 0.00 0.00 0.00 19 1013.7
20260508232033 75 300 0.9 4.3 0.00 0.00 0.00 19 1013.6
20260508231530 75 276 1.7 4.3 0.00 0.00 0.00 19 1013.6
20260508231032 75 297 0.9 4.3 0.00 0.00 0.00 19 1013.7
20260508230531 75 295 0.9 4.3 0.00 0.00 0.00 19 1013.7
20260508230038 76 294 0.9 6.1 0.00 0.00 0.00 19 1013.7
20260508225530 75 306 2.6 7.0 0.00 0.00 0.00 19 1013.7
20260508225030 76 304 2.6 7.0 0.00 0.00 0.00 19 1013.9
20260508224537 76 294 1.7 6.1 0.00 0.00 0.00 20 1014.0
20260508224029 76 291 2.6 7.8 0.00 0.00 0.00 20 1014.0
20260508223529 76 298 1.7 7.8 0.00 0.00 0.00 20 1014.1
20260508223031 76 288 1.7 7.0 0.00 0.00 0.00 20 1014.0
20260508222529 76 300 2.6 7.0 0.00 0.00 0.00 20 1014.2
20260508222028 77 291 1.7 5.2 0.00 0.00 0.00 19 1014.2
20260508221540 77 288 0.0 5.2 0.00 0.00 0.00 21 1014.3
20260508221026 76 288 2.6 5.2 0.00 0.00 0.00 22 1014.4
20260508220525 76 274 2.6 5.2 0.00 0.00 0.00 22 1014.4
20260508220028 75 288 1.7 5.2 0.00 0.00 0.00 23 1014.6
20260508215524 74 290 1.7 7.0 0.00 0.00 0.00 23 1014.6
20260508215024 74 282 3.5 7.0 0.00 0.00 0.00 23 1014.7
20260508214524 75 288 2.6 7.0 0.00 0.00 0.00 23 1014.8